Tracking 31027 objects as of 19-Jul-2025
HD Live streaming from Space Station
objects crossing your sky now

STARLINK-5222

Track STARLINK-5222 now!
10-day predictions
STARLINK-5222 is classified as:


NORAD ID: 54068
Int'l Code: 2022-136T
Perigee: 545.9 km
Apogee: 547.8 km
Inclination: 53.2 °
Period: 95.4 minutes
Semi major axis: 6917 km
RCS: Unknown
Launch date: October 20, 2022
Source: United States (US)
Launch site: AIR FORCE EASTERN TEST RANGE (AFETR)
Your satellite tracking list
COSMOS 2251 DEB
Track 1 satellite(s)




NASA's NSSDC Master Catalog

Two Line Element Set (TLE):
1 54068U 22136T   25199.57762937  .00000934  00000-0  76743-4 0  9996
2 54068  53.2184 314.9031 0001360  92.2667 267.8481 15.08841572151500
Source of the keplerian elements: AFSPC